EHI
0 0 0 0 0 0 0 0 0 0 0 0 0 0 0 0 0 0 0 0 0 0 0 0 0 0 0 0 0 0 0 0 0 0 0 0 0 0 0 0 0 0 0
0 0 0 0 0 0 0 0 0 0 0 0 0 0 0 0 0 0 0 0 0 0 0 0 0 0 0 0 0 0 0 0 0 0 0 0 0 0 0 0 0 0 0
0 0 0 0 0 0 0 0 0 0 0 0 0 0 0 0 0 0 0 0 0 0 0 0 0 0 0 0 0 0 0 0 0 0 0 0 0 0 0 0 0 0 0
0 0 0 0 0 0 0 0 0 0 0 0 0 0 0 0 0 0 0 0 0 0 0 0 0 0 0 0 0 0 0 0 0 0 0 0 0 0 0 0 0 0 0
0 0 0 0 0 0 0 0 0 0 0 0 0 0 0 0 0 0 0 0 0 0 0 0 0 0 0 0 0 0 0 0 0 0 0 0 0 0 0 0 0 0 0
0 0 0 0 0 0 0 0 0 0 0 0 0 0 0 0 0 0 0 0 0 0 0 0 0 0 0 0 0 0 0 0 0 0 0 0 0 0 0 0 0 0 0
0 0 0 0 0 0 0 0 0 0 0 0 0 0 0 0 0 0 0 0 0 0 0 0 0 0 0 0 0 0 0 0 0 0 0 0 0 0 0 0 0 0 0
0 0 0 0 0 0 0 0 0 0 0 0 0 0 0 0 0 0 0 0 0 0 0 0 0 0 0 0 0 0 0 0 0 0 0 0 0 0 0 0 0 0 0
0 0 0 0 0 0 0 0 0 0 0 0 0 0 0 0 0 0 0 0 0 0 0 0 0 0 0 0 0 0 0 0 0 0 0 0 0 0 0 0 0 0 0
0 0 0 0 0 0 0 0 0 0 0 0 0 0 0 0 0 0 0 0 0 0 0 0 0 0 0 0 0 0 0 0 0 0 0 0 0 0 0 0 0 0 0
0 0 0 0 0 0 0 0 0 0 0 0 0 0 0 0 0 0 0 0 0 0 0 0 0 0 0 0 0 0 0 0 0 0 0 0 0 0 0 0 0 0 0
0 0 0 0 0 0 0 0 0 0 0 0 0 0 0 0 0 0 0 0 0 0 0 0 0 0 0 0 0 0 0 0 0 0 0 0 0 0 0 0 0 0 0
0 0 0 0 0 0 0 0 0 0 0 0 0 0 0 0 0 0 0 0 0 0 0 0 0 0 0 0 0 0 0 0 0 0 0 0 0 0 0 0 0 0 0
0 0 0 0 0 0 0 0 0 0 0 0 0 0 0 0 0 0 0 0 0 0 0 0 0 0 0 0 0 0 0 0 0 0 0 0 0 0 0 0 0 0 0
0 0 0 0 0 0 0 0 0 0 0 0 0 0 0 0 0 0 0 0 0 0 0 0 0 0 0 0 0 0 0 0 0 0 0 0 0 0 0 0 0 0 0
0 0 0 0 0 0 0 0 0 0 0 0 0 0 0 0 0 0 0 0 0 0 0 0 0 0 0 0 0 0 0 0 0 0 0 0 0 0 0 0 0 0 0
0 0 0 0 0 0 0 0 0 0 0 0 0 0 0 0 0 0 0 0 0 0 0 0 0 0 0 0 0 0 0 0 0 0 0 0 0 0 0 0 0 0 0
0 0 0 0 0 0 0 0 0 0 0 0 0 0 0 0 0 0 0 0 0 0 0 0 0 0 0 0 0 0 0 0 0 0 0 0 0 0 0 0 0 0 0
0 0 0 0 0 0 0 0 0 0 0 0 0 0 0 0 0 0 0 0 0 0 0 0 0 0 0 0 0 0 0 0 0 0 0 0 0 0 0 0 0 0 0
0 0 0 0 0 0 0 0 0 0 0 0 0 0 0 0 0 0 0 0 0 0 0 0 0 0 0 0 0 0 0 0 0 0 0 0 0 0 0 0 0 0 0
0 0 0 0 0 0 0 0 0 0 0 0 0 0 0 0 0 0 0 0 0 0 0 0 0 0 0 0 0 0 0 0 0 0 0 0 0 0 0 0 0 0 0
0 0 0 0 0 0 0 0 0 0 0 0 0 0 0 0 0 0 0 0 0 0 0 0 0 0 0 0 0 0 0 0 0 0 0 0 0 0 0 0 0 0 0
0 0 0 0 0 0 0 0 0 0 0 0 0 0 0 0 0 0 0 0 0 0 0 0 0 0 0 0 0 0 0 0 0 0 0 0 0 0 0 0 0 0 0
0 0 0 0 0 0 0 0 0 0 0 0 0 0 0 0 0 0 0 0 0 0 0 0 0 0 0 0 0 0 0 0 0 0 0 0 0 0 0 0 0 0 0
0 0 0 0 0 0 0 0 0 0 0 0 0 0 0 0 0 0 0 0 0 0 0 0 0 0 0 0 0 0 0 0 0 0 0 0 0 0 0 0 0 0 0
0 0 0 0 0 0 0 0 0 0 0 0 0 0 0 0 0 0 0 0 0 0 0 0 0 0 0 0 0 0 0 0 0 0 0 0 0 0 0 0 0 0 0
Wind_Speed
4 4 4 4 4 4 4 4 4 4 4 5 5 5 5 5 5 5 6 5 6 6 6 6 7 6 4 4 4 3 4 4 6 4 2 2 1 1 1 1 1 1 1
5 5 5 6 5 5 6 6 6 5 5 6 6 6 6 6 5 5 6 6 6 7 7 7 7 6 6 4 4 4 4 5 5 5 3 2 2 2 1 1 1 2 3
6 6 6 6 6 7 7 7 6 6 6 6 6 6 6 6 6 6 6 7 7 7 7 7 7 6 6 5 5 5 4 4 4 4 3 2 1 2 1 2 3 3 4
7 7 7 8 8 8 8 7 7 7 6 6 6 6 6 6 6 6 6 6 7 7 7 7 7 7 7 6 5 5 4 4 4 4 3 2 2 2 3 3 3 3 3
8 8 9 9 8 8 8 8 7 7 7 6 6 6 5 5 5 5 5 6 6 6 6 6 7 9 10 8 6 5 5 4 4 4 4 3 3 4 4 3 4 4 3
8 9 9 8 8 8 8 7 7 7 7 6 6 6 6 6 7 9 7 6 6 6 7 6 6 8 9 11 11 10 9 8 7 6 4 5 5 5 4 5 6 5 3
8 9 8 8 8 8 8 7 7 7 7 6 7 7 7 8 11 11 11 6 6 6 6 5 5 5 6 5 6 8 9 10 10 7 7 7 7 7 7 7 6 5 4
8 8 8 8 8 8 7 7 7 6 6 6 7 7 7 9 11 11 11 7 6 6 6 6 6 5 5 5 5 4 4 5 6 6 6 6 6 6 7 7 7 6 6
8 8 8 8 8 7 7 8 7 6 6 6 6 7 7 8 11 11 10 4 5 6 5 5 5 6 7 8 6 5 4 2 3 6 7 7 9 10 9 8 8 8 7
9 8 8 8 8 8 8 8 7 6 7 6 7 7 7 8 10 12 9 4 4 4 3 3 5 6 7 8 6 6 6 4 4 5 5 6 6 8 10 9 9 9 8
9 8 8 8 8 8 7 6 6 6 6 6 6 6 6 8 9 11 10 4 4 4 3 3 3 6 7 7 6 6 7 6 5 6 5 5 5 5 5 5 5 8 8
9 9 8 8 8 8 5 5 5 5 5 5 5 5 4 5 6 7 8 7 6 4 4 3 3 6 7 7 6 7 9 7 5 5 5 5 5 5 5 6 6 5 5
9 9 8 8 7 6 6 5 5 4 4 4 4 4 4 3 3 4 4 5 6 4 3 5 6 7 6 6 7 9 8 5 6 6 5 5 4 5 6 7 7 8 8
10 9 7 7 7 6 4 4 4 4 4 4 4 4 3 2 1 1 2 2 3 3 2 4 6 6 4 5 6 5 4 4 5 6 6 5 5 5 6 6 7 6 6
9 8 7 6 6 5 5 4 5 5 5 5 4 4 3 3 4 5 3 2 3 3 4 3 3 3 3 3 3 4 4 4 5 5 6 6 6 6 5 5 6 6 6
8 7 5 4 4 4 3 4 5 5 7 8 8 5 3 4 5 5 5 4 5 7 5 4 4 3 4 4 4 3 4 4 5 5 6 6 6 6 5 5 5 6 6
7 6 4 4 3 3 3 3 3 3 3 3 5 6 6 5 6 5 5 5 5 6 3 4 4 3 3 3 4 4 4 4 5 6 6 6 6 6 6 6 5 6 5
6 6 5 3 3 3 3 3 2 2 1 1 1 2 6 7 6 6 6 6 3 2 2 3 4 3 3 4 5 4 4 4 5 5 6 6 6 6 6 6 6 6 5
5 4 3 2 2 2 2 2 2 2 1 1 1 3 4 6 5 4 5 2 3 3 2 2 3 3 3 3 4 5 5 5 5 5 5 6 5 6 6 6 6 8 6
4 7 4 2 2 2 1 1 1 1 2 2 3 3 4 4 3 3 2 1 2 3 2 2 3 2 3 3 4 5 5 5 6 5 5 5 5 6 7 7 7 6 5
4 5 6 3 1 1 1 1 1 1 2 2 3 4 7 4 4 4 3 2 2 3 3 2 2 2 3 3 4 5 7 5 5 5 5 5 6 5 5 6 6 6 5
4 3 3 2 2 1 1 1 1 1 2 3 2 3 7 3 3 3 3 2 2 2 3 3 3 3 4 4 5 5 6 6 5 5 5 5 5 6 6 5 5 5 6
4 4 3 2 1 1 1 1 1 1 2 2 3 3 3 2 2 3 3 3 2 2 2 3 3 3 3 4 5 6 6 6 6 7 6 6 5 5 5 6 7 6 6
5 4 3 2 2 1 1 1 1 1 2 3 3 3 3 2 2 3 3 2 2 2 3 3 3 5 6 5 4 4 4 5 6 6 8 7 6 5 5 6 6 7 6
5 4 4 3 3 2 2 2 2 2 3 3 3 3 2 2 2 2 2 2 3 3 4 3 3 4 6 7 6 5 7 9 8 7 6 6 7 7 7 7 6 5 5
5 5 4 4 3 3 3 3 3 3 3 3 2 2 2 2 2 2 2 3 3 3 3 2 4 5 5 5 7 9 9 9 9 8 6 6 7 6 6 5 6 6 6
Wind_Direction
258 255 264 267 268 270 269 268 268 273 282 285 284 285 279 271 265 258 253 250 244 244 241 233 233 225 221 221 215 215 215 211 247 264 250 252 261 260 319 13 34 76 92
254 255 259 263 264 263 260 261 262 267 270 272 273 275 275 274 267 261 261 258 249 247 242 235 236 231 222 218 215 220 221 214 223 249 254 242 241 217 189 138 93 92 88
255 252 257 260 257 256 254 255 257 259 266 271 269 267 269 271 269 264 259 258 250 246 241 234 232 224 226 222 218 221 223 222 211 219 239 234 232 186 149 119 100 88 91
254 249 251 252 250 249 250 252 251 249 252 259 264 261 260 264 266 266 268 262 254 248 242 235 228 220 221 219 222 219 211 210 208 210 219 212 204 177 153 146 122 98 95
251 246 245 245 245 246 247 248 248 248 250 247 255 260 258 259 260 266 271 273 262 257 248 238 231 227 222 216 216 210 201 202 201 203 206 198 188 173 169 158 141 121 89
252 251 250 248 246 245 246 246 247 247 248 245 245 249 252 260 271 277 269 265 264 256 251 243 237 233 226 221 220 216 207 201 201 200 204 195 193 180 162 156 147 140 126
257 258 255 248 245 247 249 246 239 239 237 241 245 245 247 254 262 269 270 259 254 253 244 236 239 229 217 213 215 218 216 211 205 199 197 198 189 179 164 162 158 142 131
264 262 259 254 248 243 243 243 239 234 231 236 243 244 246 256 261 265 267 262 251 251 241 234 231 220 211 202 204 207 204 204 204 205 201 200 186 176 167 158 146 119 101
272 269 266 261 259 251 244 244 241 234 235 236 239 242 243 256 260 259 260 249 248 252 244 235 228 217 209 197 190 185 183 196 186 181 181 175 168 164 153 138 140 138 132
278 275 273 269 263 257 249 245 242 235 237 240 242 241 240 248 255 254 250 231 239 243 240 237 225 210 198 187 184 173 174 174 149 135 134 137 148 152 154 155 154 148 138
281 280 276 270 263 257 252 248 242 240 241 242 247 250 246 246 253 251 244 218 218 222 222 220 213 200 189 184 177 172 171 158 141 133 126 121 121 130 136 137 144 147 144
278 277 275 271 270 275 251 248 245 240 244 244 245 258 259 255 248 247 237 214 203 207 218 208 193 186 181 175 165 152 149 142 129 123 122 123 123 125 122 119 116 110 112
280 275 272 271 267 262 252 248 249 241 238 241 233 241 261 263 250 230 214 204 207 203 203 183 168 170 169 168 155 144 143 139 131 127 126 123 120 121 116 109 101 98 87
282 277 272 268 265 261 253 244 239 235 232 231 225 228 239 242 220 200 183 179 188 180 162 152 150 155 157 143 140 136 131 134 135 131 124 115 110 111 115 117 115 110 97
283 277 272 263 258 260 254 245 241 233 215 210 216 208 199 215 218 193 180 184 184 171 145 137 139 141 146 141 130 122 123 128 124 122 122 120 118 115 112 109 115 112 112
289 281 271 262 257 253 256 276 264 249 246 235 226 208 207 206 184 181 185 180 170 158 149 149 147 147 154 154 141 128 126 130 130 128 129 128 127 125 118 111 113 118 120
288 284 274 264 258 252 246 249 275 290 279 256 232 212 198 179 171 169 156 144 151 153 143 146 145 148 154 153 148 141 139 138 135 136 136 134 130 126 125 123 120 118 119
298 295 289 264 254 250 249 245 241 239 269 334 335 195 172 163 158 156 141 124 129 146 131 135 140 145 155 154 153 148 140 134 131 135 135 136 135 132 131 132 134 133 130
310 303 290 272 262 255 246 247 239 216 185 152 95 78 116 127 131 145 150 143 153 158 145 128 131 137 148 147 144 143 141 140 137 135 136 138 137 132 133 135 135 139 131
314 316 320 293 279 269 251 232 207 182 166 149 145 143 139 133 141 157 183 190 161 156 153 141 142 149 152 142 134 135 133 134 134 131 136 138 139 139 140 139 141 143 145
319 320 325 317 290 271 247 200 174 158 153 153 160 167 165 160 160 164 173 190 178 163 161 153 143 157 158 144 135 135 136 136 137 136 139 141 141 139 140 142 145 146 143
321 320 321 322 327 357 98 129 126 128 146 149 141 142 161 149 149 159 175 187 183 180 172 164 168 176 171 157 146 139 138 140 140 139 139 140 140 139 138 139 141 143 145
335 342 346 350 10 49 73 100 118 120 130 138 135 132 146 155 160 166 175 176 175 183 173 162 166 164 150 147 147 146 150 155 154 148 141 139 140 141 141 144 149 149 155
346 352 352 352 10 38 81 98 117 122 121 125 129 134 148 162 164 169 170 173 176 175 164 160 163 160 150 145 145 147 153 154 149 148 148 146 146 145 145 147 153 160 162
350 357 3 11 27 44 68 85 98 105 109 118 125 132 142 153 159 166 172 168 163 161 161 159 155 154 154 152 150 148 155 156 154 147 144 144 148 151 152 154 157 158 160
359 5 13 24 36 44 58 70 82 95 107 119 125 130 138 141 150 159 157 150 146 147 151 152 151 149 153 154 148 144 146 153 154 151 145 144 148 153 154 157 164 166 165